Wind_Speed
18 20 23 24 25 26 26 26 27 27 26 25 24 22 21 19 18 16 15 13 11 10 10 9 7 5 4 2 1 1 1 4 5 9 11 7 5 8 12 14 19 24 25 24 24 23 22 22 22 21 19 16 16 15 12 9 5 5 6 7 9 12 14 16 20 18 11 9 10 8 7 8 9 7 3 3 4 7 8 6 5 6 3 3 7 8 7 7
14 17 20 23 25 26 26 27 27 28 28 27 26 25 23 22 20 19 17 16 14 12 11 10 9 8 6 4 2 2 2 2 4 8 8 4 5 9 12 15 19 22 23 24 24 24 24 24 24 23 20 17 15 14 11 8 5 4 6 8 9 12 14 15 19 17 11 8 9 8 6 6 6 4 3 3 6 7 7 5 5 6 5 4 6 7 7 7
13 14 16 19 22 25 27 27 28 28 29 29 29 28 26 25 23 21 20 18 16 15 13 12 11 10 8 6 4 3 3 2 4 6 6 7 10 12 14 17 20 22 23 24 25 26 26 26 24 23 20 17 14 12 9 6 6 6 7 10 10 12 13 14 16 17 14 9 8 8 6 6 5 4 5 5 7 7 6 5 6 6 7 6 5 7 7 7
14 14 14 15 18 21 24 27 28 29 29 29 30 30 29 27 26 24 22 21 19 17 15 13 13 12 11 8 6 5 4 4 4 4 6 9 11 13 15 19 22 23 23 24 25 26 27 26 25 22 20 17 14 11 8 6 6 7 9 10 10 11 12 13 14 16 15 11 9 9 6 6 6 6 6 6 6 5 5 5 6 7 8 8 6 6 7 7
15 15 15 15 16 17 20 23 27 29 29 30 30 31 31 30 29 27 25 23 21 20 18 16 14 14 13 11 9 8 6 6 5 3 5 6 8 11 15 18 22 24 24 25 26 27 27 26 24 22 19 17 15 12 8 7 6 7 8 7 6 8 11 13 13 15 15 11 10 9 6 6 7 6 5 4 3 3 4 5 6 7 8 8 7 6 6 6
17 17 17 17 16 16 17 19 22 26 29 30 31 31 32 32 31 30 28 26 24 22 20 18 16 15 15 13 12 11 9 8 7 4 4 4 6 10 14 18 21 24 25 25 26 27 27 25 23 21 19 16 14 12 8 7 7 5 4 4 6 6 11 13 13 15 14 9 9 9 6 7 7 5 1 1 2 2 4 6 7 7 7 7 6 6 6 6
18 18 18 18 18 18 17 17 19 21 26 29 31 32 32 33 33 32 31 29 27 25 23 21 19 17 17 16 14 13 11 8 7 6 4 4 6 9 13 16 19 23 25 26 26 27 27 25 23 21 18 15 14 12 10 8 7 6 3 4 7 8 10 12 14 14 11 8 8 7 5 7 7 6 3 3 4 4 5 7 7 7 7 7 5 5 6 6
20 19 19 19 19 19 19 19 18 19 21 25 29 32 33 33 34 34 33 32 30 28 26 23 22 19 18 18 17 16 13 9 9 8 5 4 6 9 13 14 17 23 26 26 26 27 28 26 23 21 18 15 14 12 10 8 5 3 3 5 6 8 8 11 14 11 7 8 8 6 5 7 7 7 6 6 6 6 7 7 6 6 6 6 4 4 5 5
21 21 21 20 20 20 20 20 20 19 20 21 24 28 32 34 34 35 35 34 33 31 29 26 24 22 20 19 19 18 15 13 12 10 7 4 6 10 14 15 17 23 27 28 28 28 29 27 24 21 19 16 14 13 11 7 3 1 2 4 6 6 7 9 12 9 6 7 6 3 6 9 9 8 8 8 8 8 8 7 5 5 6 4 4 3 3 4
22 22 22 22 21 21 21 21 21 21 21 21 22 24 28 32 35 35 36 35 35 34 32 29 27 24 23 21 20 20 17 16 13 11 8 6 7 10 15 18 21 25 28 29 29 29 28 27 25 23 21 19 16 14 11 8 4 3 1 4 6 7 7 7 9 7 6 4 2 4 8 10 10 8 8 8 8 8 8 8 5 5 5 4 4 4 3 3
23 23 23 23 23 22 22 22 22 22 22 22 22 23 24 28 32 35 36 36 36 36 34 32 30 27 25 23 22 21 19 18 15 12 10 8 9 11 15 20 23 26 28 30 31 30 29 28 27 25 23 21 19 15 11 11 8 3 1 5 9 10 7 4 5 5 4 1 5 6 7 9 9 7 7 6 7 7 7 7 6 6 5 5 6 5 4 4
21 22 22 22 22 23 23 23 23 23 23 23 23 23 23 25 28 32 36 37 37 37 36 35 33 31 28 26 26 23 20 20 17 15 13 11 11 12 14 19 24 26 28 33 33 31 31 31 29 27 25 23 20 16 15 17 13 8 5 8 10 11 6 2 3 4 4 5 8 6 6 7 6 5 5 5 5 5 5 5 5 6 5 5 6 6 4 4
20 21 21 21 22 22 22 22 23 24 24 24 24 24 24 24 25 28 32 36 38 37 36 36 35 34 31 30 29 24 21 22 20 19 17 15 14 14 16 19 24 26 29 35 37 35 33 33 31 28 27 25 22 20 19 18 14 12 8 10 11 12 7 3 3 6 5 7 8 6 6 7 5 3 2 2 3 2 2 3 4 5 4 4 4 5 4 4
20 20 21 22 22 22 22 22 23 24 25 25 26 25 25 25 25 26 28 32 36 38 37 37 37 36 34 33 31 26 25 25 24 23 21 18 17 17 18 21 24 26 29 34 38 37 34 33 32 30 29 26 24 22 20 17 12 12 11 11 10 11 8 4 7 7 5 7 7 6 6 6 4 3 2 0 1 2 1 2 4 4 4 4 5 5 5 4
21 21 21 22 23 23 24 23 23 24 25 26 27 27 25 26 26 26 26 27 31 35 37 38 38 38 36 36 33 29 28 29 29 27 23 21 20 19 21 23 26 28 30 32 35 35 33 32 32 30 30 29 27 24 21 19 14 14 12 11 9 8 6 6 9 7 6 6 5 5 5 5 3 3 3 2 2 2 2 2 4 5 5 6 7 7 6 5
23 22 23 23 23 23 24 24 25 26 27 27 28 28 27 26 26 26 26 25 26 29 34 37 39 38 38 38 37 34 33 34 32 29 26 24 22 23 24 25 28 31 32 32 33 34 32 31 32 32 32 30 29 27 24 21 17 16 14 11 10 8 5 8 8 7 7 6 5 5 5 4 3 3 4 4 3 3 2 2 4 5 5 6 7 7 6 6
25 25 24 24 24 24 24 24 24 26 29 29 30 30 29 27 26 26 26 26 25 27 31 36 39 39 38 40 40 38 38 37 34 32 30 28 26 26 25 26 29 32 33 33 33 33 31 31 33 33 32 31 30 30 27 23 18 16 16 14 11 5 5 7 6 8 9 8 9 9 7 4 3 3 3 5 4 3 3 3 4 4 5 5 5 6 6 5
26 27 27 26 26 26 25 24 23 25 28 31 31 31 31 29 27 28 26 25 27 28 29 33 39 40 39 41 41 40 40 39 36 35 33 31 29 28 27 27 30 34 35 34 32 31 31 32 34 34 32 31 31 31 28 22 19 16 16 14 7 5 7 6 7 10 10 8 8 8 7 6 5 5 4 4 5 3 4 4 4 4 4 5 5 5 5 5
29 28 29 29 29 28 27 25 24 24 27 30 31 31 32 31 30 30 28 26 28 30 29 30 35 40 42 41 41 42 42 41 39 36 34 32 31 31 30 30 31 35 37 33 31 30 31 33 33 33 31 29 29 28 25 22 19 17 16 13 9 9 8 6 6 8 8 8 7 4 5 6 8 10 8 5 5 4 3 4 5 5 4 5 6 5 4 3
30 30 30 31 31 31 30 28 27 26 27 29 31 31 31 32 32 32 30 28 29 31 31 30 30 36 43 43 43 44 44 43 41 38 37 35 34 34 33 32 32 34 35 32 31 30 32 33 31 28 26 26 27 26 24 24 22 21 20 16 11 8 7 4 4 6 6 6 5 2 2 4 7 13 12 8 8 6 5 4 4 5 4 4 6 6 5 3
32 32 32 32 33 32 32 31 29 28 28 29 31 31 30 31 33 34 31 29 30 32 30 30 30 30 38 45 45 45 45 45 44 41 39 38 38 37 35 34 32 32 32 32 33 33 33 31 27 26 26 27 28 27 26 26 23 23 22 20 15 8 5 1 1 3 2 3 3 3 3 3 6 12 13 11 10 9 9 9 7 6 5 4 5 6 7 5
34 33 33 33 34 34 33 32 32 31 30 30 31 31 30 31 32 34 33 28 29 34 31 29 32 27 31 44 47 47 47 46 46 44 42 41 41 39 37 35 33 30 31 33 34 33 30 27 24 27 30 31 31 30 28 26 24 24 24 22 19 11 6 8 6 2 3 4 7 7 5 4 6 10 11 11 11 11 11 11 10 9 7 6 6 7 8 7
34 34 34 34 35 35 34 34 33 33 32 32 32 32 32 32 32 32 34 30 25 33 35 31 31 27 28 37 45 48 46 44 46 47 45 44 42 41 40 37 34 32 33 35 33 29 24 22 26 31 34 35 33 31 29 26 25 27 26 23 20 14 11 10 8 8 9 11 11 10 8 6 6 9 10 9 11 12 13 12 11 11 10 9 8 8 8 8
35 35 35 35 35 36 35 34 34 34 34 33 33 33 33 33 33 31 32 33 25 26 35 34 29 25 26 33 42 47 45 44 47 48 47 45 43 44 42 39 36 34 35 34 32 28 22 22 30 35 36 35 34 33 31 27 27 28 27 24 21 18 13 10 12 14 16 17 15 13 13 9 8 9 7 8 10 12 14 13 9 11 12 12 10 10 10 10
35 35 36 36 36 36 36 35 35 35 34 34 34 34 34 33 34 31 30 32 27 24 32 36 29 24 27 34 39 44 45 44 47 49 49 46 44 45 44 42 40 37 36 35 33 29 24 26 34 37 36 36 35 35 33 29 29 30 27 24 22 19 17 16 19 19 20 21 16 15 17 13 12 10 6 7 10 13 16 12 8 9 11 11 11 11 12 11
35 35 36 36 36 36 37 36 35 35 34 35 34 34 35 34 35 33 31 31 28 25 29 34 31 26 28 33 34 38 44 43 45 49 51 48 46 45 45 45 43 40 38 37 35 31 26 30 37 38 37 36 36 36 34 31 32 33 28 24 22 21 21 23 24 23 23 20 17 19 21 19 17 9 6 8 9 14 16 10 7 7 7 8 9 10 11 12
35 36 36 36 36 36 37 37 36 35 35 35 35 34 35 35 35 34 32 32 27 24 28 31 31 26 26 32 32 35 41 40 41 48 50 49 48 46 47 47 45 42 41 40 39 34 30 34 39 39 38 38 38 37 34 33 35 35 29 23 23 23 22 24 24 23 21 20 22 25 23 22 17 8 8 11 11 13 11 5 6 5 4 7 8 8 10 10
36 37 36 36 36 36 36 37 37 36 35 35 35 34 34 35 36 34 33 32 24 20 25 28 28 25 26 32 32 32 36 36 38 44 47 49 49 48 48 48 47 45 44 43 39 34 32 35 37 39 39 39 38 34 34 35 35 33 29 24 24 24 23 24 25 22 20 22 27 27 23 22 17 10 12 15 13 11 4 2 4 4 5 8 9 9 9 10
38 38 37 36 36 36 35 37 38 37 35 35 35 34 34 35 35 33 34 32 23 18 23 23 24 25 25 30 29 29 34 37 38 40 44 48 49 49 48 47 48 48 46 45 40 35 34 35 37 40 41 39 35 32 35 38 32 29 29 28 27 26 25 26 27 24 23 27 30 28 24 22 18 14 16 16 11 6 3 4 6 6 8 10 10 11 11 11
39 39 38 37 36 36 35 37 38 37 35 36 35 34 35 34 34 34 34 30 21 18 21 22 23 24 25 27 27 27 32 37 38 40 44 47 48 49 48 47 49 50 49 47 44 39 37 38 40 43 42 38 35 33 37 38 30 28 32 31 29 29 28 29 29 27 28 33 31 27 24 23 22 20 19 16 11 7 7 7 8 8 8 11 12 11 11 12
40 40 40 38 37 36 36 38 38 35 35 37 36 35 35 34 33 34 31 25 21 18 19 20 23 24 26 26 23 23 28 33 37 41 44 47 49 50 50 51 53 54 53 52 49 44 42 43 43 45 44 39 37 37 39 38 33 32 35 33 32 32 31 32 33 31 34 35 29 24 22 25 28 25 19 17 14 11 10 11 11 9 9 13 13 10 11 12
41 41 40 39 38 36 37 40 38 35 36 37 36 35 35 34 34 31 25 22 21 18 16 18 21 24 28 28 25 22 23 28 33 39 42 46 49 51 51 52 53 55 56 55 52 48 46 46 45 46 45 41 39 41 41 41 38 36 37 37 37 37 36 37 37 36 37 34 27 23 23 28 32 24 18 19 16 12 11 13 13 11 11 14 13 11 12 12
41 41 41 40 38 37 39 41 39 35 35 37 37 36 36 36 33 26 21 20 19 15 14 18 20 23 28 29 25 24 23 25 29 33 38 41 46 49 50 49 50 52 54 54 52 50 48 48 47 47 47 43 42 43 43 43 41 39 40 41 42 42 41 41 41 39 37 33 28 26 27 34 34 24 18 18 14 12 14 14 13 13 14 15 13 11 12 12
42 42 42 41 39 39 41 42 39 36 35 37 38 37 38 37 30 24 21 19 16 15 16 19 22 25 27 26 25 26 24 22 23 26 31 36 42 46 48 49 51 52 52 53 53 52 50 50 48 48 48 45 44 43 42 42 40 39 41 43 45 45 44 42 41 40 37 32 29 29 32 37 33 23 19 18 15 14 16 17 15 14 14 14 13 12 13 12
43 43 42 41 41 42 42 41 39 37 35 37 39 39 40 35 28 24 22 19 18 19 21 23 25 28 29 26 25 26 24 19 17 20 24 30 36 41 45 48 51 52 54 55 55 53 52 50 46 46 47 45 44 43 41 42 42 42 44 47 48 47 44 42 39 36 33 30 30 32 35 36 31 25 21 18 17 17 19 22 21 18 15 14 14 13 13 13
44 44 43 42 43 43 42 40 40 38 37 38 40 41 39 33 27 25 23 21 21 21 23 26 28 30 31 29 26 25 23 21 18 18 20 24 29 33 38 43 48 50 53 55 54 53 53 49 45 46 46 45 44 43 42 44 45 44 47 50 49 46 44 43 41 36 32 31 32 33 33 33 33 31 26 19 17 17 20 23 23 20 17 14 14 14 13 13
44 44 44 44 43 42 41 41 40 40 39 40 42 41 37 31 27 26 24 23 23 23 25 29 32 33 34 32 30 26 23 22 21 19 19 20 24 29 32 37 43 47 50 51 52 51 51 49 47 46 46 44 43 42 43 45 46 46 47 48 48 47 46 45 43 38 36 35 36 35 32 31 33 32 27 22 21 21 22 22 20 18 16 14 15 15 15 14
45 45 45 45 43 42 42 42 42 41 41 42 42 40 36 31 27 26 26 25 25 25 27 32 36 37 36 35 32 30 28 26 23 22 20 20 21 24 27 31 37 43 47 48 49 50 50 49 48 47 45 42 42 44 45 47 48 47 47 48 50 51 50 49 46 42 40 40 40 39 37 35 34 32 29 26 25 26 24 22 20 17 15 15 16 17 17 15
45 45 46 46 44 43 42 43 43 43 43 43 41 38 34 29 27 27 27 27 27 28 30 34 39 40 39 37 34 32 31 29 27 26 25 23 20 19 20 24 30 36 42 46 49 49 48 48 48 47 45 43 45 48 48 48 49 49 50 52 53 54 52 50 48 45 44 44 44 44 44 42 38 36 34 31 29 28 25 23 19 16 16 18 19 19 18 17
45 45 46 46 45 44 43 44 44 44 44 43 39 36 32 30 29 29 29 30 32 32 32 35 41 42 39 37 37 34 31 30 29 29 29 27 23 19 17 19 24 29 36 42 46 46 46 48 46 44 45 46 48 49 47 47 50 50 52 54 53 54 53 48 47 48 48 48 48 49 50 47 42 39 36 33 31 27 23 21 19 16 18 20 20 19 18 17
46 46 46 46 46 45 44 44 44 44 44 42 39 36 33 32 31 30 31 34 35 34 33 35 42 45 41 39 39 36 34 33 31 29 30 30 30 26 19 16 20 24 28 37 43 45 46 49 46 43 46 48 47 47 45 44 46 46 48 51 51 51 51 48 47 50 50 49 49 49 47 42 37 37 36 34 32 26 22 22 21 20 22 22 20 18 18 16
47 47 47 47 47 47 46 45 44 44 45 43 39 36 34 34 34 32 34 37 37 35 34 36 42 46 42 39 40 38 38 38 35 29 27 30 33 28 22 18 19 21 24 31 37 40 41 45 45 43 44 45 44 45 46 44 43 43 45 48 49 50 51 51 50 50 48 47 46 45 43 39 34 33 34 32 28 22 20 22 23 24 26 25 21 18 17 15
47 47 48 48 48 48 46 45 44 44 44 42 40 39 38 36 35 33 34 38 39 37 35 36 41 47 45 41 41 40 40 42 39 30 27 32 31 24 22 22 21 21 24 25 27 30 33 39 43 42 41 42 43 45 47 44 42 42 43 44 46 48 47 47 48 47 45 44 44 42 41 40 35 32 32 31 27 22 22 24 24 25 27 25 22 19 17 15
47 47 49 49 48 47 46 44 43 43 43 43 43 42 41 38 36 35 35 38 40 39 37 37 41 46 48 46 45 44 41 41 40 35 33 33 29 25 24 26 26 25 26 24 23 25 29 36 41 42 42 44 45 47 48 46 43 42 41 40 41 41 41 43 44 42 40 41 42 41 41 38 33 30 29 28 26 24 23 24 23 24 24 24 21 18 17 15
47 47 49 50 48 47 46 44 44 44 44 44 44 43 41 39 37 36 37 39 41 40 37 37 40 47 51 50 49 48 44 40 40 40 38 31 27 26 27 29 31 30 27 23 21 23 25 31 37 42 45 48 50 50 48 46 44 41 40 39 38 37 37 40 42 42 41 40 40 40 39 37 34 30 26 25 25 25 23 22 21 21 21 21 19 17 16 14
47 46 47 49 50 48 47 45 44 44 44 44 43 41 41 39 37 37 38 39 41 40 38 37 39 47 54 52 51 52 46 40 41 43 40 32 28 26 25 29 32 30 27 24 24 24 25 26 31 38 45 46 46 46 44 43 42 40 39 38 38 38 37 38 44 45 42 39 39 38 37 36 34 29 26 27 28 26 25 23 20 19 18 18 16 15 17 15
47 46 45 48 51 50 48 46 44 44 44 45 44 42 41 39 37 38 39 39 41 41 40 40 41 47 55 55 54 54 47 42 44 47 43 34 32 27 23 27 31 29 29 30 30 30 30 28 26 31 38 42 42 41 41 41 41 40 38 36 36 37 37 41 47 46 40 39 39 36 34 34 33 30 28 29 30 30 27 24 20 18 18 18 16 16 18 18
48 47 45 47 50 51 50 47 45 44 44 45 45 43 42 40 38 39 39 39 40 41 42 42 43 47 53 56 58 55 50 44 44 49 48 38 35 31 21 24 31 32 33 36 36 35 35 32 27 25 30 37 41 41 41 41 41 39 38 36 34 35 37 42 47 45 39 38 37 34 33 32 31 31 30 30 32 31 27 21 19 19 19 19 18 18 21 21
49 48 47 47 48 50 51 49 46 45 44 46 46 44 43 42 41 40 40 38 38 41 45 45 46 49 52 57 62 58 53 46 40 46 50 41 36 34 25 23 30 31 31 35 37 38 38 36 32 28 27 33 40 44 43 42 41 39 39 37 34 35 37 40 45 43 40 38 37 36 36 35 34 34 33 31 30 29 24 21 21 22 22 22 21 22 23 24
49 49 48 47 47 49 51 51 48 45 43 45 46 45 44 43 42 42 40 38 39 43 47 47 47 50 52 56 63 62 56 48 39 41 48 43 38 35 29 25 27 26 26 29 33 38 40 38 35 33 31 33 39 44 45 42 40 39 39 37 35 34 34 38 42 44 43 42 40 39 40 38 36 34 31 28 28 27 25 23 24 25 24 22 22 23 24 26
50 50 49 48 47 47 49 50 50 46 44 44 46 46 45 44 43 43 41 39 42 45 47 48 48 50 51 53 59 64 60 50 40 39 43 44 42 39 33 28 26 25 25 26 28 33 38 38 36 36 36 34 37 44 46 42 40 40 39 37 36 34 33 35 39 42 43 42 41 42 42 37 33 32 29 27 29 30 27 26 27 26 24 23 23 24 26 28
51 50 49 48 47 46 46 48 49 48 45 44 46 46 45 44 44 44 42 41 43 45 47 49 48 47 50 51 53 61 63 55 45 40 41 43 46 45 40 33 29 27 26 28 29 31 35 39 38 38 38 34 36 42 43 39 39 42 42 38 37 36 33 34 38 39 39 37 37 40 39 33 29 29 27 27 29 30 29 30 29 26 24 24 25 25 27 29
Wind_Direction
265 262 259 257 256 254 253 253 252 253 254 254 253 252 251 251 251 250 251 249 244 236 230 223 220 228 235 253 280 273 219 209 202 198 199 210 226 191 175 175 173 169 168 168 160 150 147 144 140 133 128 124 117 115 110 100 100 97 84 55 35 36 34 23 20 16 16 35 37 36 36 46 62 63 59 74 80 78 64 35 33 60 49 69 117 135 136 134
275 267 263 260 258 256 254 252 252 251 252 253 252 251 250 249 249 249 249 248 246 240 233 225 219 221 228 233 245 259 243 213 205 210 209 206 198 182 176 177 175 171 169 168 160 150 147 144 139 135 132 129 123 121 120 117 115 103 85 64 41 32 28 20 20 19 17 36 50 49 44 59 67 72 86 71 59 54 50 42 32 46 41 46 103 121 124 123
286 279 271 264 260 258 256 254 252 251 251 251 251 251 249 248 248 247 247 247 247 243 238 229 222 219 222 226 230 237 241 209 197 212 207 195 195 187 178 177 177 175 172 170 162 152 148 144 139 136 133 129 123 121 121 115 107 97 65 42 33 26 15 13 19 15 11 16 39 46 42 61 71 64 70 58 48 38 30 33 23 33 40 43 81 107 113 112
289 286 282 275 268 262 258 255 253 252 250 250 250 250 249 247 246 246 245 245 245 244 242 235 225 220 219 221 223 225 233 215 197 211 210 203 199 188 180 178 178 177 175 172 165 157 152 146 141 138 133 129 126 125 124 122 112 87 57 37 28 20 6 6 11 7 1 356 8 24 24 44 60 51 49 50 44 30 20 22 16 25 34 37 55 88 100 102
288 286 285 282 278 271 265 259 255 253 251 250 249 249 249 248 246 244 244 243 243 243 242 239 230 223 219 217 218 222 229 221 213 229 231 222 207 188 182 181 181 179 176 174 170 164 157 150 145 142 138 134 132 130 130 137 127 78 57 61 50 16 353 351 353 355 352 339 344 5 25 44 58 52 44 57 49 21 21 24 24 27 30 33 37 58 78 87
290 287 284 282 281 278 274 268 261 256 252 251 249 248 248 248 247 245 242 241 241 241 241 240 235 227 221 217 217 220 227 225 220 232 248 240 213 190 183 185 185 182 179 178 175 168 160 153 149 147 145 141 137 138 145 153 144 109 71 68 63 12 339 339 341 345 344 326 329 355 35 56 77 93 106 101 74 41 37 34 32 30 31 31 27 35 55 67
289 288 286 283 281 279 278 275 270 263 257 252 250 249 247 246 246 246 244 241 239 239 239 239 237 231 224 220 218 221 226 226 217 217 235 233 208 193 185 187 188 184 182 181 178 172 162 154 154 153 152 150 145 155 173 177 171 155 131 44 38 6 343 350 350 342 331 313 319 344 38 70 96 123 138 107 87 69 55 45 34 33 36 34 27 23 32 44
286 286 286 285 283 281 278 276 274 272 266 258 253 250 248 247 245 245 244 242 239 236 236 237 236 233 227 222 219 222 225 221 215 212 215 214 201 193 186 183 185 186 186 183 180 173 163 159 162 161 158 162 160 173 195 194 193 180 118 33 8 349 349 4 357 334 301 300 313 342 49 81 93 102 95 88 85 76 64 54 40 40 47 42 38 28 20 30
284 284 284 283 283 282 280 278 275 273 271 267 260 253 249 248 246 244 243 242 240 237 234 234 234 233 230 225 222 223 225 220 220 218 209 203 197 190 185 178 179 186 189 186 183 176 168 166 169 168 167 171 173 184 203 201 184 132 52 355 335 335 349 9 352 314 267 287 308 15 64 72 74 75 75 75 75 71 66 59 49 53 65 68 62 52 32 32
284 283 283 282 282 282 281 280 278 274 271 270 268 261 254 249 247 245 243 241 240 239 235 231 231 232 230 228 224 223 226 223 222 222 208 202 203 192 185 179 179 186 190 189 184 178 175 173 173 175 177 179 181 188 199 204 191 130 81 315 309 316 332 4 349 302 255 276 325 69 63 58 60 65 67 67 67 66 67 65 60 62 73 81 77 73 69 63
284 283 283 282 281 281 280 280 280 278 274 270 268 267 261 254 249 246 245 242 239 238 236 232 229 229 229 229 227 223 226 226 223 222 213 203 206 201 190 183 183 188 190 188 183 182 181 180 182 182 184 188 187 184 188 199 199 173 210 285 296 303 312 350 339 289 248 177 71 61 53 53 55 66 71 68 70 69 67 66 63 67 75 79 79 79 81 95
285 285 284 283 282 282 281 280 279 279 277 274 270 267 265 261 255 249 246 243 241 239 237 234 230 227 226 227 228 224 223 226 222 219 216 207 204 208 202 190 188 190 190 185 182 186 187 187 188 187 189 193 187 180 190 200 190 181 236 271 282 287 287 295 291 244 200 117 86 60 48 50 44 59 68 67 77 84 72 64 65 66 70 76 82 83 84 102
282 283 284 284 284 283 282 281 280 279 277 276 273 269 266 263 261 256 250 245 243 240 237 235 231 228 225 225 228 224 219 224 223 217 213 208 202 205 207 199 194 194 193 187 185 190 192 191 192 192 194 192 184 183 199 210 189 172 215 256 267 272 277 272 215 184 154 112 101 86 61 52 43 31 16 43 63 70 65 55 60 57 53 54 64 77 83 97
279 279 280 282 283 284 284 283 282 280 279 277 274 271 268 265 262 260 256 250 245 242 239 237 233 228 225 225 226 222 219 221 222 218 213 208 203 201 202 204 201 198 199 196 194 197 197 196 195 193 193 189 184 189 201 213 194 166 197 237 253 264 273 229 184 169 130 110 109 103 79 58 51 23 340 301 22 17 19 32 38 33 32 29 26 40 51 74
278 277 277 278 279 281 282 283 283 281 279 278 276 272 270 268 265 262 260 257 251 246 241 238 236 230 225 225 223 220 220 220 221 219 216 211 206 202 199 202 203 201 204 204 202 202 200 199 195 190 189 187 187 192 200 208 195 173 192 226 242 259 257 191 172 157 131 128 113 95 79 58 55 59 52 57 40 30 25 27 20 5 12 18 13 22 30 47
281 279 278 277 277 278 279 281 282 282 280 278 277 274 271 269 268 266 262 260 258 252 244 239 237 233 227 224 222 219 219 221 220 217 216 213 207 204 201 200 201 203 207 209 207 206 204 198 192 188 189 190 191 194 200 209 201 181 187 219 237 248 220 172 162 146 138 134 106 76 59 45 39 57 64 59 54 49 36 42 22 353 357 9 9 16 22 35
282 281 280 279 278 277 277 278 280 281 281 278 277 276 274 271 270 269 265 261 259 256 248 240 236 235 231 227 222 219 219 221 220 215 214 212 207 206 205 200 201 206 210 212 211 210 206 199 192 191 194 194 196 199 202 212 214 190 182 202 224 228 172 163 148 131 125 112 95 73 46 21 349 356 42 54 49 43 28 33 33 7 354 354 357 8 17 31
281 280 280 280 279 279 278 278 278 280 280 278 277 277 276 273 271 268 265 264 259 255 251 243 236 232 232 230 225 220 220 223 222 219 216 213 209 207 206 203 200 206 212 214 214 212 209 202 196 196 200 199 201 204 206 217 228 206 184 186 180 111 114 140 130 116 110 100 98 82 44 21 14 5 11 37 38 36 26 13 12 9 360 349 341 351 10 32
279 279 280 280 280 279 279 279 279 279 280 279 278 277 276 275 273 268 264 263 260 255 252 248 239 232 230 230 227 222 220 222 224 222 220 217 213 210 208 207 203 206 213 217 215 213 210 207 204 202 205 206 205 207 209 220 227 208 194 186 150 104 98 112 116 108 103 102 108 99 34 22 35 26 14 20 19 10 9 3 354 346 346 337 329 333 348 16
277 278 278 279 279 279 279 279 279 279 280 281 281 278 276 274 272 268 265 263 261 257 254 251 245 236 231 228 227 224 219 219 222 222 221 219 216 212 211 211 208 208 213 218 217 214 212 212 213 210 210 209 206 206 209 217 217 203 199 193 169 133 108 95 95 94 92 100 107 95 19 12 25 22 17 14 8 356 339 334 333 326 322 319 315 317 314 317
275 275 276 277 278 278 279 279 279 279 279 280 282 282 279 275 270 267 265 265 263 258 254 254 250 242 236 231 227 226 221 218 219 220 220 221 219 216 214 215 214 212 214 217 217 214 212 214 216 211 209 208 206 208 212 218 216 202 192 185 179 157 123 216 217 86 48 51 42 340 322 335 8 20 20 11 5 359 342 331 322 313 303 296 295 300 301 300
274 274 274 275 276 277 278 279 279 279 279 279 280 283 283 279 273 267 262 261 264 261 255 252 250 246 240 235 230 227 223 218 217 218 218 220 221 219 218 219 217 214 214 217 219 217 215 215 211 206 206 206 208 212 216 219 215 199 183 177 178 170 185 230 235 270 304 316 327 311 292 312 356 17 18 5 356 351 340 329 319 313 302 287 279 282 286 289
274 274 273 273 274 275 277 278 279 279 279 280 281 282 284 283 279 272 263 255 257 263 259 252 248 247 246 240 233 229 226 220 218 218 217 217 220 221 220 221 217 212 214 220 222 222 219 212 205 204 204 206 210 214 217 218 211 198 185 176 175 180 201 224 242 271 284 289 296 291 282 298 339 1 10 358 343 339 337 328 313 305 303 294 279 272 270 271
274 273 273 273 273 274 275 276 277 278 279 279 281 282 283 285 283 280 271 258 248 258 262 256 248 247 248 243 234 229 225 221 218 219 218 216 218 221 222 221 217 212 215 220 224 225 221 209 204 204 205 207 211 212 215 216 209 201 192 180 176 183 197 225 250 264 275 276 274 274 276 287 315 331 349 343 330 329 332 331 310 292 296 296 283 272 270 264
274 273 272 272 272 272 273 274 275 276 278 278 279 281 282 284 285 285 281 267 250 249 259 258 252 247 246 245 239 229 223 220 219 219 219 216 215 221 223 222 218 215 214 217 221 222 216 207 206 208 207 208 210 209 212 215 209 205 199 188 180 182 192 221 245 256 263 265 266 271 275 284 298 304 320 322 315 317 325 328 305 290 292 293 285 274 273 266
274 273 272 271 271 272 272 273 274 275 276 276 277 279 280 283 285 287 286 276 261 252 255 258 255 249 245 247 245 234 224 220 218 218 219 217 214 218 223 224 221 217 213 214 218 218 211 207 208 209 210 210 210 208 208 212 212 210 206 195 187 186 196 218 236 249 258 269 277 278 276 278 280 281 291 294 292 305 318 317 282 287 300 295 285 271 270 268
274 273 272 271 270 270 272 272 273 273 274 275 275 277 279 281 284 287 288 283 275 262 255 257 257 252 244 243 242 234 225 220 219 219 218 218 215 215 220 224 223 218 213 213 216 214 209 209 209 210 211 211 210 208 205 208 212 211 207 202 198 192 196 213 229 245 264 280 281 275 270 267 265 268 279 275 277 298 319 318 257 259 311 312 302 280 265 262
275 273 272 271 270 269 271 271 271 272 272 273 274 274 276 279 281 286 288 286 286 271 256 259 260 252 242 241 240 234 224 217 219 220 218 220 217 214 217 222 223 219 215 216 217 211 208 211 211 210 213 214 212 208 204 208 211 209 209 216 214 199 194 208 223 238 259 270 269 267 264 261 260 265 273 271 276 289 314 333 276 269 307 314 315 306 285 265
275 274 272 271 270 269 269 270 270 271 271 272 272 272 273 276 279 284 285 287 293 276 258 260 260 251 240 238 236 230 221 215 215 217 217 219 218 215 215 220 223 219 216 218 218 211 207 211 210 211 216 218 214 208 203 209 210 204 212 222 217 204 197 204 217 231 249 257 258 257 258 262 264 262 264 264 267 271 258 289 300 300 307 305 306 317 313 289
275 274 273 271 270 269 268 268 268 269 271 270 270 270 270 273 277 279 282 289 297 280 264 261 257 250 241 234 231 224 218 214 213 213 215 216 217 216 214 217 221 220 217 217 217 212 208 210 209 211 217 217 214 209 204 208 206 200 212 218 211 207 202 204 216 229 243 249 249 250 254 261 265 258 252 255 258 258 266 291 300 292 295 294 296 317 323 303
274 273 273 271 269 268 267 266 266 267 268 268 268 268 269 271 272 276 284 294 294 279 269 264 256 248 238 229 222 217 216 216 215 214 214 215 216 215 213 214 217 217 216 216 214 211 209 210 208 210 215 213 211 210 206 207 204 202 209 211 210 213 208 210 220 228 238 244 245 248 251 254 257 253 252 266 271 266 279 304 304 289 280 283 289 314 319 304
273 272 272 270 269 268 266 265 265 265 265 267 267 266 267 268 268 276 289 292 284 274 264 260 253 244 239 229 212 203 208 214 218 218 216 216 217 216 214 214 216 217 217 216 214 210 208 210 209 209 212 211 210 209 205 204 204 205 208 206 211 217 214 217 223 229 238 243 243 246 249 251 254 255 262 270 271 279 303 312 306 292 274 275 288 307 309 301
271 271 270 269 268 265 264 263 263 262 263 265 265 264 264 264 268 278 285 278 275 273 259 250 242 236 238 232 210 192 196 206 214 220 220 219 220 219 216 215 218 221 222 220 218 213 209 210 209 208 209 209 210 209 205 204 204 205 206 206 211 216 216 219 223 229 237 243 246 247 248 250 252 255 264 266 273 299 306 299 294 284 268 270 287 297 298 304
269 268 268 268 266 263 262 262 262 261 262 263 263 263 262 262 268 276 274 266 264 259 246 236 230 227 229 226 207 191 191 198 209 219 222 220 220 221 218 215 216 219 221 222 221 217 214 212 210 208 208 208 209 209 205 205 208 207 205 206 211 215 217 220 225 231 236 244 250 250 249 250 252 259 268 272 281 287 281 277 278 272 264 269 281 288 292 303
267 266 266 266 264 263 262 262 262 261 261 261 261 260 260 262 267 270 265 257 249 243 236 229 224 220 218 214 201 191 186 186 206 222 225 222 221 222 221 218 217 217 218 220 220 219 217 216 213 212 210 208 209 208 202 203 209 208 205 207 211 216 219 222 227 233 239 248 252 250 252 256 259 262 264 269 277 273 269 274 274 269 267 269 276 288 296 299
265 264 264 263 262 262 262 261 260 259 258 258 257 257 258 261 263 263 259 250 242 239 235 230 224 216 213 207 195 190 185 182 197 220 228 225 221 222 223 221 220 219 219 220 221 220 219 217 215 215 214 208 209 209 202 203 207 206 205 207 210 215 219 224 229 232 237 244 249 248 251 257 259 259 257 261 271 269 265 270 272 271 268 268 278 291 296 297
263 263 262 261 261 261 260 259 257 257 256 255 255 256 258 259 258 258 254 246 239 236 231 227 222 214 211 204 193 192 191 185 192 211 224 227 221 219 222 222 221 221 221 221 223 223 221 219 216 218 218 210 208 210 205 203 205 206 207 208 210 215 219 223 228 232 235 238 241 244 246 251 255 256 256 256 262 266 262 262 267 266 263 266 276 285 288 292
262 261 260 260 259 258 258 256 255 254 254 253 254 256 258 259 256 254 250 243 238 235 230 225 220 215 211 203 195 197 197 192 195 203 214 228 224 215 220 224 222 221 221 220 222 224 223 222 218 218 220 213 207 210 208 205 204 206 209 210 212 216 220 223 225 228 233 235 236 239 241 245 249 252 253 250 254 260 257 252 256 260 262 267 273 280 284 291
260 259 259 258 258 256 255 254 254 252 252 252 253 256 258 258 253 248 245 240 236 234 230 224 219 215 213 205 199 200 201 200 201 199 204 220 223 213 217 226 225 224 223 219 220 222 223 224 220 217 219 215 209 209 210 208 205 204 208 212 214 217 221 224 225 227 230 233 234 236 238 240 243 248 252 249 250 255 251 246 251 255 258 264 272 278 283 292
259 258 258 257 256 255 253 253 253 252 251 252 253 254 254 252 247 244 241 237 234 232 229 224 218 215 213 207 202 202 203 206 208 206 206 210 215 212 211 221 225 225 226 223 220 219 221 223 221 217 217 215 212 212 213 211 208 206 208 212 214 216 218 222 225 228 230 232 235 236 238 240 241 246 249 247 249 253 250 249 256 256 257 264 271 277 282 291
258 256 256 255 255 254 252 251 251 251 251 250 250 250 249 247 244 240 237 235 233 231 230 226 218 214 211 207 206 207 209 212 214 215 214 212 216 214 202 207 220 220 225 226 221 218 219 221 219 215 216 217 215 216 215 211 211 211 210 210 209 211 215 220 224 228 230 233 236 238 241 244 246 247 247 247 251 254 250 253 260 261 262 267 271 275 282 285
257 255 254 253 253 252 251 250 249 248 248 247 247 247 245 244 242 238 235 235 233 230 230 227 219 214 211 207 207 212 218 218 217 219 218 217 219 211 193 196 210 211 220 226 222 218 220 221 219 214 215 218 217 215 214 209 210 214 215 213 209 209 214 220 225 229 232 235 238 240 244 247 246 244 244 248 252 251 249 257 264 266 266 267 269 274 279 276
255 255 253 251 251 251 250 249 248 247 247 247 245 244 241 240 240 237 234 235 234 231 229 228 221 214 211 208 207 212 218 218 216 217 216 218 216 201 188 194 200 204 214 221 219 215 216 220 220 215 214 216 216 214 214 211 208 213 218 217 214 213 218 222 225 229 236 239 239 241 247 250 248 247 250 253 249 243 249 260 266 267 266 265 269 272 273 269
254 253 252 250 250 251 250 249 248 247 245 244 242 241 240 238 237 235 232 232 232 231 228 227 223 215 212 211 207 207 213 213 213 215 216 216 212 202 199 197 195 201 210 214 216 214 215 219 219 215 210 210 211 211 212 211 210 212 215 217 219 220 222 225 225 228 234 237 236 239 247 252 253 256 259 256 250 248 256 262 264 266 265 266 269 269 265 266
253 252 252 250 248 250 249 247 246 244 243 242 242 242 241 238 236 235 233 230 230 231 229 228 226 217 213 213 206 203 207 209 210 214 214 210 203 202 207 203 199 201 204 209 216 218 222 222 220 216 211 208 210 211 212 214 213 213 212 213 220 225 227 227 226 226 229 231 231 234 241 248 251 256 258 253 250 251 253 255 257 261 262 265 268 266 267 269
252 251 251 250 247 247 248 246 244 243 242 241 240 240 240 238 236 235 234 230 229 230 229 229 229 221 216 215 206 200 204 206 207 212 213 206 195 196 209 210 203 195 192 202 214 218 225 228 226 223 217 214 215 217 217 216 216 216 214 211 216 225 232 230 225 224 228 232 235 237 242 247 250 255 260 255 249 246 246 250 257 260 262 268 273 275 278 279
250 249 250 250 247 246 246 245 243 241 240 239 237 237 236 235 233 233 234 230 226 227 227 228 230 224 221 220 213 203 201 204 205 209 212 204 187 188 208 214 203 191 192 208 218 220 225 227 227 227 223 217 216 217 215 213 213 214 215 214 214 222 232 229 222 224 231 235 239 244 247 250 251 254 259 258 251 246 248 256 263 268 272 276 279 281 283 285
249 247 246 247 247 245 245 244 242 240 238 237 236 234 232 231 229 230 232 231 226 225 226 228 230 228 225 226 223 211 202 202 203 203 207 202 184 180 193 208 208 204 207 216 220 222 225 225 222 225 225 218 212 212 212 212 211 212 214 216 215 220 229 227 222 226 236 241 245 250 251 252 253 252 255 258 253 249 253 261 263 266 271 274 278 281 282 288
247 246 244 243 244 245 244 243 241 238 237 236 235 232 230 229 227 227 229 228 224 223 225 227 229 230 228 228 228 218 204 204 203 195 197 196 185 180 182 194 206 211 216 220 221 223 226 224 220 221 225 220 213 210 210 211 212 213 215 216 215 219 226 227 225 230 239 246 250 251 252 253 253 252 254 259 257 251 254 258 257 261 267 272 278 281 284 293
244 244 242 241 241 242 242 241 239 237 235 234 233 231 229 227 226 226 225 224 223 222 224 226 228 231 231 230 230 223 211 208 206 193 191 192 188 184 183 186 194 203 215 223 224 226 227 223 219 220 223 222 216 210 208 210 213 214 214 213 213 217 223 226 228 232 239 246 248 247 248 251 252 252 253 256 253 247 249 255 258 263 268 271 277 282 290 298
243 242 241 240 239 238 239 240 239 236 232 232 232 230 227 226 225 224 222 219 220 222 224 225 227 230 232 232 233 230 220 212 206 196 191 192 191 189 188 186 189 196 207 216 223 227 226 223 221 221 223 221 214 210 210 212 215 214 210 208 210 215 221 224 228 231 235 241 244 244 243 245 249 250 250 250 244 240 247 260 265 268 272 276 280 285 291 294
243 241 240 239 237 236 235 236 238 236 231 229 230 228 225 224 223 223 220 217 218 221 223 225 226 229 232 233 235 233 226 217 209 202 197 193 191 192 192 188 189 196 202 209 219 224 223 223 222 221 221 215 207 208 209 211 216 215 209 208 210 213 219 224 228 231 232 235 241 242 240 241 246 249 248 246 241 241 252 265 269 271 274 277 280 282 284 284
Height
5893 5893 5893 5893 5893 5893 5894 5894 5895 5895 5895 5896 5897 5897 5898 5898 5899 5899 5899 5900 5900 5900 5900 5900 5901 5901 5901 5901 5901 5900 5900 5900 5900 5900 5901 5900 5900 5901 5902 5902 5903 5903 5904 5905 5907 5908 5908 5908 5909 5910 5910 5911 5910 5910 5911 5912 5912 5913 5913 5913 5912 5912 5912 5912 5912 5912 5912 5912 5913 5914 5914 5914 5914 5913 5913 5913 5912 5912 5912 5912 5912 5912 5912 5911 5910 5910 5911 5911
5891 5891 5891 5891 5891 5891 5891 5892 5892 5893 5893 5893 5894 5895 5896 5897 5897 5898 5898 5898 5899 5899 5899 5899 5900 5900 5900 5900 5900 5900 5900 5900 5900 5900 5900 5900 5900 5901 5902 5903 5904 5904 5905 5906 5907 5907 5908 5909 5910 5910 5911 5912 5911 5912 5912 5913 5912 5912 5912 5912 5912 5912 5912 5912 5912 5913 5913 5913 5913 5914 5915 5916 5915 5915 5914 5913 5912 5912 5913 5914 5914 5913 5913 5912 5911 5911 5911 5911
5890 5889 5889 5888 5888 5888 5889 5889 5889 5890 5891 5891 5892 5893 5894 5895 5896 5896 5897 5897 5897 5898 5898 5898 5899 5899 5899 5899 5899 5899 5899 5900 5900 5899 5899 5900 5900 5901 5901 5902 5904 5904 5905 5906 5907 5907 5908 5909 5910 5911 5911 5912 5912 5913 5913 5913 5913 5913 5912 5912 5912 5912 5913 5912 5912 5913 5913 5913 5913 5913 5915 5917 5916 5915 5914 5913 5912 5912 5913 5914 5914 5914 5914 5914 5913 5912 5912 5912
5888 5888 5887 5887 5886 5886 5886 5886 5887 5887 5888 5888 5889 5890 5891 5892 5893 5894 5895 5896 5896 5896 5896 5897 5897 5898 5898 5898 5899 5898 5898 5899 5899 5899 5899 5899 5900 5900 5901 5902 5903 5904 5905 5906 5907 5907 5908 5909 5910 5911 5911 5912 5912 5913 5913 5913 5913 5913 5912 5912 5913 5913 5913 5913 5913 5914 5913 5912 5912 5913 5915 5916 5915 5913 5913 5912 5912 5913 5913 5914 5914 5914 5914 5914 5914 5914 5913 5913
5887 5886 5886 5885 5885 5884 5884 5884 5884 5884 5885 5885 5886 5887 5888 5889 5890 5891 5893 5894 5894 5895 5895 5896 5896 5896 5897 5897 5897 5898 5898 5898 5898 5898 5898 5898 5899 5900 5901 5901 5902 5903 5904 5906 5907 5907 5908 5909 5910 5911 5911 5911 5912 5912 5913 5913 5913 5912 5912 5912 5913 5913 5914 5914 5914 5914 5913 5912 5912 5913 5915 5916 5914 5913 5912 5913 5913 5913 5914 5914 5914 5914 5914 5914 5915 5915 5914 5914
5885 5885 5884 5884 5883 5883 5882 5882 5882 5882 5882 5882 5883 5884 5885 5886 5887 5888 5890 5891 5892 5893 5893 5894 5895 5895 5896 5896 5896 5897 5897 5897 5897 5897 5897 5898 5899 5900 5901 5901 5901 5902 5904 5905 5906 5907 5908 5909 5910 5911 5911 5911 5911 5912 5913 5913 5912 5912 5912 5912 5912 5913 5915 5915 5916 5914 5913 5913 5913 5914 5916 5916 5915 5914 5914 5914 5914 5914 5914 5914 5914 5914 5914 5914 5915 5915 5915 5915
5883 5883 5883 5882 5882 5881 5881 5880 5880 5879 5879 5880 5880 5881 5882 5883 5884 5885 5887 5888 5889 5891 5892 5892 5893 5894 5894 5895 5895 5895 5896 5896 5896 5897 5897 5897 5898 5899 5900 5901 5901 5902 5903 5905 5906 5907 5908 5909 5910 5911 5911 5911 5911 5912 5912 5912 5912 5912 5912 5912 5911 5913 5916 5916 5915 5914 5913 5914 5914 5915 5916 5916 5916 5915 5915 5915 5914 5914 5914 5914 5914 5914 5914 5914 5914 5915 5915 5915
5881 5881 5881 5880 5880 5879 5879 5879 5878 5878 5877 5877 5877 5878 5879 5880 5880 5882 5883 5885 5886 5888 5889 5890 5891 5892 5893 5893 5894 5894 5895 5895 5895 5896 5896 5897 5898 5899 5900 5901 5902 5902 5903 5905 5906 5907 5908 5909 5910 5910 5911 5911 5911 5911 5912 5912 5913 5913 5911 5911 5912 5914 5915 5916 5915 5914 5914 5914 5915 5916 5916 5915 5915 5915 5915 5915 5915 5914 5914 5914 5914 5914 5914 5914 5915 5915 5915 5916
5878 5878 5878 5878 5878 5877 5877 5877 5876 5876 5876 5875 5875 5875 5876 5876 5877 5878 5879 5881 5883 5884 5886 5888 5889 5890 5891 5891 5892 5893 5893 5894 5894 5895 5896 5896 5897 5898 5899 5900 5901 5902 5902 5904 5906 5906 5907 5908 5909 5910 5910 5910 5911 5911 5911 5912 5912 5912 5910 5910 5912 5913 5914 5915 5915 5915 5915 5915 5916 5916 5915 5914 5914 5914 5914 5915 5914 5914 5914 5914 5915 5915 5915 5915 5915 5915 5916 5916
5876 5876 5875 5875 5875 5875 5875 5874 5874 5874 5874 5873 5873 5873 5873 5873 5874 5875 5876 5877 5879 5881 5883 5885 5886 5888 5889 5889 5890 5891 5892 5893 5894 5894 5895 5896 5896 5897 5898 5899 5900 5900 5901 5903 5905 5906 5907 5908 5908 5909 5910 5910 5910 5910 5910 5911 5911 5910 5909 5910 5912 5913 5914 5915 5916 5915 5915 5916 5916 5915 5914 5913 5913 5913 5914 5914 5914 5914 5915 5915 5915 5916 5916 5916 5916 5916 5916 5916
5874 5873 5873 5873 5872 5872 5872 5872 5872 5872 5871 5871 5871 5870 5870 5870 5871 5872 5873 5874 5875 5877 5879 5881 5883 5885 5886 5887 5888 5889 5890 5891 5893 5893 5894 5895 5895 5896 5896 5897 5898 5899 5900 5902 5904 5905 5906 5906 5907 5908 5908 5908 5908 5909 5909 5909 5909 5908 5909 5910 5912 5913 5914 5915 5916 5916 5917 5917 5916 5915 5914 5914 5914 5914 5914 5914 5915 5915 5915 5915 5916 5916 5916 5916 5917 5917 5917 5917
5871 5871 5871 5870 5870 5870 5869 5869 5869 5869 5869 5869 5868 5868 5868 5868 5868 5869 5869 5871 5872 5874 5875 5877 5880 5882 5884 5885 5885 5887 5889 5890 5891 5892 5893 5894 5894 5895 5896 5896 5896 5897 5898 5901 5903 5903 5903 5904 5905 5906 5907 5907 5908 5908 5907 5907 5906 5907 5908 5910 5911 5913 5914 5915 5916 5917 5917 5917 5916 5916 5915 5915 5915 5915 5915 5915 5915 5915 5916 5916 5916 5916 5916 5916 5917 5917 5917 5917
5869 5869 5868 5868 5868 5867 5867 5867 5866 5866 5865 5865 5865 5865 5865 5866 5866 5866 5866 5868 5869 5871 5872 5874 5876 5878 5880 5881 5882 5885 5887 5887 5889 5890 5890 5892 5893 5894 5895 5895 5895 5895 5896 5897 5898 5899 5900 5902 5903 5905 5906 5906 5907 5907 5906 5906 5906 5906 5908 5910 5911 5912 5914 5915 5916 5917 5917 5916 5916 5916 5916 5916 5916 5916 5916 5916 5915 5915 5916 5916 5916 5916 5916 5916 5917 5917 5917 5917
5867 5867 5866 5866 5865 5865 5865 5864 5863 5863 5862 5862 5862 5862 5863 5863 5863 5864 5864 5865 5866 5867 5869 5870 5872 5874 5877 5877 5879 5883 5884 5885 5885 5886 5888 5890 5891 5892 5893 5895 5895 5895 5894 5894 5894 5895 5897 5899 5901 5903 5905 5905 5906 5906 5905 5905 5905 5905 5907 5909 5910 5912 5913 5915 5916 5916 5916 5916 5916 5917 5917 5918 5918 5918 5917 5916 5916 5915 5915 5916 5916 5916 5916 5916 5916 5917 5917 5917
5865 5864 5864 5864 5863 5862 5862 5861 5861 5860 5859 5859 5858 5859 5860 5860 5860 5861 5862 5862 5863 5864 5866 5867 5868 5870 5873 5873 5876 5879 5880 5881 5881 5883 5886 5887 5889 5890 5890 5892 5894 5894 5893 5893 5893 5894 5896 5897 5899 5902 5903 5903 5904 5905 5904 5903 5904 5904 5906 5908 5910 5912 5913 5914 5915 5916 5916 5916 5916 5917 5918 5919 5919 5919 5918 5917 5916 5916 5915 5915 5915 5916 5916 5916 5916 5916 5917 5917
5862 5862 5861 5861 5861 5860 5859 5859 5858 5857 5856 5855 5855 5855 5857 5858 5858 5858 5859 5860 5860 5860 5861 5863 5865 5867 5869 5869 5872 5874 5875 5875 5877 5880 5882 5884 5886 5887 5887 5889 5890 5892 5891 5891 5892 5892 5894 5896 5898 5900 5900 5901 5903 5903 5902 5902 5902 5902 5905 5908 5910 5912 5914 5915 5916 5917 5916 5916 5916 5917 5918 5920 5920 5920 5919 5918 5917 5916 5916 5915 5916 5916 5916 5916 5916 5916 5917 5917
5859 5859 5858 5858 5858 5857 5857 5856 5856 5854 5852 5852 5852 5852 5853 5855 5855 5855 5855 5856 5857 5856 5857 5858 5860 5863 5865 5866 5868 5869 5870 5870 5873 5876 5878 5880 5882 5884 5885 5886 5888 5889 5889 5889 5890 5891 5893 5894 5896 5897 5898 5900 5901 5901 5901 5901 5902 5902 5904 5908 5911 5913 5915 5916 5917 5917 5916 5916 5916 5918 5919 5921 5921 5920 5920 5919 5918 5917 5917 5916 5916 5916 5916 5917 5917 5917 5917 5918
5856 5856 5855 5855 5854 5854 5854 5854 5853 5852 5849 5849 5849 5849 5849 5851 5851 5851 5852 5853 5853 5852 5853 5853 5855 5858 5860 5861 5864 5865 5867 5868 5870 5872 5874 5876 5878 5880 5882 5884 5885 5886 5886 5886 5887 5889 5891 5893 5894 5895 5896 5897 5898 5899 5900 5900 5902 5903 5904 5908 5912 5913 5915 5916 5917 5917 5916 5916 5917 5918 5919 5921 5920 5920 5919 5918 5918 5917 5917 5917 5917 5917 5917 5917 5917 5917 5918 5918
5853 5852 5852 5851 5851 5850 5850 5850 5850 5849 5847 5845 5846 5846 5846 5847 5847 5847 5849 5849 5849 5848 5849 5849 5851 5853 5854 5857 5859 5861 5863 5865 5868 5871 5873 5874 5875 5877 5879 5880 5881 5882 5882 5884 5886 5888 5889 5890 5891 5891 5892 5895 5896 5899 5901 5902 5904 5904 5905 5909 5912 5913 5914 5915 5916 5917 5917 5917 5917 5918 5919 5920 5920 5919 5917 5917 5917 5917 5917 5917 5917 5917 5917 5918 5917 5917 5918 5918
5849 5849 5848 5848 5847 5847 5847 5847 5847 5846 5844 5842 5841 5842 5843 5843 5842 5843 5844 5845 5844 5844 5846 5846 5847 5849 5850 5851 5853 5855 5858 5861 5864 5868 5870 5871 5872 5873 5874 5876 5877 5878 5879 5882 5884 5886 5887 5888 5888 5890 5892 5894 5897 5899 5902 5903 5903 5904 5905 5908 5911 5912 5912 5914 5915 5916 5917 5917 5918 5918 5919 5919 5919 5918 5916 5916 5916 5916 5917 5917 5918 5917 5917 5917 5917 5917 5917 5917
5845 5845 5845 5844 5843 5843 5843 5843 5843 5842 5842 5839 5838 5838 5838 5838 5839 5839 5841 5841 5839 5840 5842 5843 5843 5846 5846 5846 5848 5850 5854 5856 5859 5863 5866 5868 5869 5869 5870 5872 5874 5876 5878 5880 5882 5883 5884 5885 5887 5891 5893 5895 5897 5899 5900 5901 5902 5903 5903 5905 5907 5909 5910 5912 5913 5914 5915 5916 5917 5917 5918 5918 5918 5917 5916 5915 5915 5916 5916 5917 5918 5918 5918 5917 5917 5917 5916 5916
5841 5841 5841 5840 5840 5839 5839 5839 5839 5838 5838 5837 5835 5834 5833 5833 5835 5835 5837 5839 5836 5834 5837 5839 5839 5842 5842 5841 5844 5846 5849 5853 5855 5857 5861 5863 5865 5867 5868 5869 5872 5875 5877 5877 5877 5879 5881 5884 5888 5892 5893 5893 5895 5896 5898 5899 5901 5902 5902 5902 5904 5906 5908 5909 5911 5912 5913 5914 5915 5915 5916 5916 5917 5917 5916 5915 5915 5916 5916 5916 5917 5917 5917 5917 5917 5917 5916 5916
5837 5837 5837 5836 5836 5835 5835 5835 5835 5834 5834 5833 5832 5830 5829 5828 5830 5831 5832 5836 5835 5830 5831 5834 5836 5838 5838 5836 5839 5841 5846 5851 5852 5853 5855 5859 5862 5864 5865 5866 5869 5872 5873 5873 5875 5878 5881 5884 5888 5890 5890 5891 5892 5894 5895 5897 5899 5900 5900 5901 5902 5903 5905 5907 5909 5910 5911 5912 5912 5913 5914 5915 5915 5916 5916 5915 5916 5916 5916 5916 5916 5916 5916 5917 5917 5917 5916 5915
5833 5833 5832 5832 5832 5831 5831 5831 5831 5830 5830 5830 5829 5827 5826 5824 5824 5826 5827 5830 5833 5829 5825 5828 5832 5834 5833 5831 5832 5836 5842 5846 5848 5849 5851 5854 5859 5861 5862 5864 5866 5869 5870 5872 5874 5877 5880 5884 5886 5886 5887 5888 5890 5892 5893 5895 5898 5899 5899 5900 5901 5902 5903 5905 5906 5907 5908 5909 5910 5911 5911 5912 5914 5915 5915 5915 5916 5916 5916 5916 5916 5916 5916 5916 5916 5916 5916 5916
5829 5829 5828 5828 5827 5827 5826 5827 5827 5826 5826 5826 5825 5824 5823 5821 5820 5821 5822 5823 5828 5827 5822 5823 5827 5829 5828 5826 5827 5832 5837 5840 5843 5846 5847 5851 5855 5857 5860 5861 5863 5865 5867 5870 5872 5874 5879 5882 5883 5883 5884 5886 5888 5889 5891 5894 5897 5897 5898 5899 5900 5901 5902 5903 5903 5905 5906 5906 5907 5909 5909 5910 5912 5913 5914 5915 5915 5915 5916 5916 5916 5915 5915 5915 5915 5916 5916 5916
5825 5824 5824 5823 5823 5823 5822 5822 5822 5823 5822 5821 5822 5821 5820 5818 5816 5816 5817 5818 5822 5824 5821 5820 5822 5824 5824 5823 5825 5828 5832 5836 5839 5841 5843 5847 5850 5853 5856 5858 5859 5862 5864 5867 5868 5871 5876 5878 5879 5880 5882 5883 5885 5886 5888 5892 5895 5896 5898 5900 5900 5900 5901 5902 5901 5902 5903 5904 5906 5907 5907 5907 5909 5911 5913 5914 5914 5914 5915 5915 5915 5915 5914 5914 5914 5915 5915 5915
5821 5820 5819 5819 5819 5819 5818 5818 5818 5818 5818 5817 5818 5818 5817 5815 5813 5813 5813 5813 5817 5819 5817 5816 5817 5820 5820 5818 5820 5823 5827 5833 5835 5836 5840 5843 5845 5849 5851 5854 5857 5859 5861 5862 5863 5867 5872 5875 5875 5877 5879 5880 5881 5883 5886 5889 5892 5894 5898 5899 5899 5899 5900 5901 5901 5901 5902 5903 5903 5904 5905 5905 5906 5909 5911 5911 5913 5914 5914 5915 5914 5914 5914 5913 5913 5914 5914 5914
5816 5815 5815 5814 5814 5815 5814 5813 5813 5814 5814 5813 5814 5813 5813 5812 5810 5810 5809 5809 5813 5815 5813 5812 5813 5815 5815 5813 5815 5819 5823 5828 5830 5832 5837 5839 5841 5844 5846 5850 5854 5856 5857 5858 5860 5866 5870 5872 5873 5875 5876 5876 5879 5883 5886 5887 5889 5894 5898 5898 5898 5899 5899 5900 5900 5901 5902 5902 5900 5901 5903 5904 5904 5907 5909 5909 5910 5912 5913 5914 5914 5913 5913 5912 5912 5912 5912 5913
5811 5811 5810 5810 5810 5810 5810 5809 5808 5809 5809 5809 5809 5809 5809 5808 5808 5807 5805 5805 5809 5810 5809 5809 5808 5809 5810 5810 5812 5815 5818 5822 5824 5827 5830 5832 5835 5839 5842 5848 5851 5852 5853 5854 5858 5864 5867 5869 5872 5873 5873 5874 5879 5883 5884 5884 5888 5894 5897 5896 5897 5897 5897 5897 5897 5898 5900 5898 5897 5899 5902 5902 5902 5905 5907 5907 5908 5910 5912 5913 5913 5912 5912 5911 5911 5911 5911 5911
5806 5805 5805 5806 5805 5805 5806 5805 5804 5805 5805 5804 5805 5805 5805 5804 5804 5803 5802 5803 5806 5806 5805 5805 5804 5804 5805 5807 5809 5811 5814 5817 5819 5821 5823 5825 5829 5833 5838 5843 5846 5848 5849 5850 5854 5859 5863 5865 5868 5868 5869 5873 5879 5881 5881 5882 5887 5893 5893 5893 5894 5895 5894 5894 5894 5896 5896 5893 5894 5898 5900 5900 5900 5902 5905 5905 5906 5908 5909 5910 5910 5910 5910 5910 5910 5910 5909 5909
5801 5800 5800 5801 5800 5801 5800 5799 5799 5801 5800 5799 5800 5801 5800 5800 5800 5799 5799 5801 5802 5802 5802 5801 5800 5800 5801 5802 5806 5809 5812 5814 5815 5816 5818 5820 5822 5826 5830 5833 5836 5840 5842 5843 5847 5853 5856 5858 5861 5863 5866 5871 5875 5877 5878 5881 5885 5888 5889 5890 5892 5891 5892 5891 5891 5892 5889 5888 5893 5897 5898 5897 5895 5898 5903 5904 5905 5907 5908 5908 5908 5908 5909 5908 5908 5908 5908 5907
5795 5795 5795 5796 5796 5796 5795 5793 5794 5797 5796 5795 5796 5796 5796 5795 5795 5796 5798 5799 5798 5798 5799 5798 5798 5798 5798 5799 5802 5805 5808 5811 5812 5814 5815 5817 5818 5820 5824 5827 5830 5834 5836 5838 5843 5847 5850 5853 5856 5859 5863 5868 5870 5872 5874 5877 5880 5882 5884 5887 5888 5888 5888 5888 5887 5887 5885 5887 5892 5895 5895 5892 5890 5895 5901 5901 5903 5905 5906 5906 5907 5907 5907 5906 5907 5907 5906 5906
5790 5789 5789 5790 5791 5791 5789 5787 5789 5792 5792 5791 5790 5791 5791 5790 5791 5795 5797 5796 5795 5795 5796 5796 5796 5797 5797 5798 5799 5799 5802 5805 5808 5810 5812 5814 5815 5817 5821 5825 5828 5832 5835 5838 5841 5843 5846 5848 5852 5855 5859 5863 5865 5866 5869 5872 5875 5877 5880 5882 5883 5884 5884 5883 5884 5884 5884 5887 5890 5892 5891 5886 5886 5893 5897 5898 5900 5902 5903 5904 5905 5905 5905 5905 5905 5905 5904 5904
5784 5784 5784 5784 5785 5784 5783 5782 5784 5787 5788 5786 5786 5786 5786 5785 5789 5793 5793 5792 5792 5793 5793 5793 5794 5795 5795 5797 5796 5795 5797 5800 5804 5806 5808 5810 5811 5813 5817 5820 5823 5827 5832 5835 5837 5840 5842 5843 5847 5850 5854 5858 5860 5862 5866 5870 5873 5875 5877 5880 5880 5880 5881 5881 5882 5882 5884 5887 5888 5888 5884 5881 5885 5891 5894 5896 5898 5900 5901 5902 5903 5903 5903 5903 5903 5903 5903 5903
5777 5777 5778 5778 5778 5778 5778 5778 5779 5782 5782 5782 5781 5780 5780 5782 5787 5789 5788 5789 5789 5789 5789 5789 5791 5792 5793 5794 5795 5793 5793 5796 5799 5802 5803 5805 5808 5810 5813 5816 5819 5822 5825 5828 5831 5835 5838 5841 5846 5849 5852 5856 5858 5861 5866 5869 5871 5872 5875 5876 5875 5877 5880 5881 5881 5882 5883 5884 5883 5883 5880 5879 5885 5890 5892 5894 5895 5897 5898 5899 5900 5901 5901 5901 5901 5901 5902 5901
5771 5771 5771 5771 5771 5772 5773 5774 5774 5775 5776 5776 5775 5774 5776 5780 5783 5783 5784 5785 5785 5786 5786 5787 5788 5789 5790 5792 5793 5792 5791 5792 5794 5797 5799 5802 5805 5807 5810 5813 5816 5819 5821 5824 5827 5831 5834 5839 5845 5847 5849 5853 5856 5859 5863 5864 5866 5868 5869 5869 5872 5877 5881 5880 5879 5880 5881 5880 5879 5879 5879 5880 5883 5886 5889 5892 5893 5894 5895 5896 5898 5899 5899 5899 5899 5900 5900 5900
5764 5764 5764 5764 5765 5766 5767 5768 5768 5769 5770 5769 5768 5769 5773 5776 5778 5779 5780 5780 5781 5782 5783 5783 5784 5785 5787 5789 5790 5790 5789 5789 5791 5793 5796 5798 5800 5803 5806 5809 5813 5815 5818 5822 5826 5829 5832 5837 5842 5843 5846 5851 5855 5858 5860 5860 5862 5865 5865 5868 5873 5877 5877 5876 5877 5877 5877 5877 5876 5876 5878 5879 5880 5882 5886 5890 5892 5893 5893 5894 5895 5896 5897 5897 5898 5898 5899 5898
5758 5758 5757 5758 5759 5760 5760 5760 5761 5763 5763 5762 5763 5766 5769 5772 5774 5775 5775 5776 5777 5778 5778 5779 5780 5781 5783 5785 5787 5786 5786 5787 5787 5789 5792 5794 5796 5800 5804 5806 5809 5811 5815 5818 5821 5825 5829 5833 5837 5840 5843 5849 5852 5853 5854 5855 5857 5860 5863 5868 5871 5872 5871 5872 5872 5872 5872 5874 5873 5875 5877 5877 5878 5881 5885 5888 5890 5891 5891 5892 5892 5894 5895 5895 5896 5896 5896 5897
5750 5751 5750 5751 5753 5754 5753 5753 5755 5756 5756 5756 5759 5762 5766 5768 5769 5770 5770 5771 5772 5772 5773 5774 5775 5777 5779 5782 5784 5784 5784 5785 5785 5785 5786 5789 5793 5798 5801 5804 5806 5808 5811 5813 5816 5820 5824 5827 5832 5836 5839 5844 5845 5845 5847 5850 5852 5856 5860 5863 5865 5866 5867 5869 5869 5869 5870 5870 5871 5873 5874 5875 5877 5880 5883 5886 5888 5889 5889 5889 5890 5892 5892 5893 5894 5894 5894 5895
5743 5743 5743 5744 5746 5746 5747 5747 5748 5749 5750 5752 5755 5758 5760 5762 5763 5764 5765 5766 5766 5767 5768 5769 5771 5773 5776 5779 5781 5781 5782 5783 5783 5783 5783 5784 5788 5792 5797 5801 5803 5806 5808 5810 5812 5816 5819 5821 5827 5832 5834 5836 5837 5838 5843 5847 5849 5851 5854 5856 5859 5861 5863 5866 5867 5867 5867 5868 5869 5870 5870 5872 5877 5880 5882 5885 5886 5886 5886 5887 5888 5889 5890 5891 5891 5891 5892 5892
5735 5736 5736 5737 5738 5739 5740 5740 5741 5743 5744 5747 5750 5752 5754 5756 5757 5759 5759 5759 5760 5762 5763 5765 5767 5769 5772 5775 5778 5779 5779 5780 5780 5781 5781 5781 5783 5785 5790 5796 5801 5803 5804 5805 5807 5811 5813 5816 5822 5827 5827 5829 5833 5837 5843 5846 5848 5849 5851 5852 5855 5858 5860 5862 5862 5862 5864 5866 5866 5867 5868 5871 5876 5879 5881 5883 5884 5884 5884 5884 5885 5886 5887 5888 5889 5889 5890 5890
5727 5727 5729 5730 5730 5731 5732 5733 5735 5736 5738 5741 5744 5746 5748 5749 5751 5753 5754 5754 5755 5757 5759 5761 5763 5766 5768 5771 5774 5775 5774 5775 5776 5777 5778 5779 5780 5782 5786 5791 5797 5801 5801 5802 5804 5808 5811 5813 5817 5821 5823 5827 5832 5836 5839 5843 5846 5847 5849 5850 5853 5854 5856 5857 5858 5859 5862 5863 5864 5865 5866 5868 5873 5876 5878 5879 5880 5881 5881 5882 5882 5884 5884 5885 5886 5887 5888 5887
5719 5719 5720 5722 5723 5724 5725 5727 5729 5731 5733 5736 5738 5739 5740 5743 5745 5748 5749 5749 5750 5752 5755 5757 5759 5762 5765 5766 5768 5768 5768 5770 5772 5774 5775 5775 5778 5781 5784 5787 5792 5797 5799 5800 5803 5806 5808 5809 5811 5817 5821 5825 5829 5832 5834 5838 5840 5841 5843 5846 5849 5850 5852 5855 5856 5858 5860 5860 5862 5864 5863 5864 5869 5873 5874 5875 5877 5878 5879 5879 5880 5881 5881 5882 5884 5885 5885 5885
5711 5711 5712 5714 5716 5717 5718 5720 5723 5725 5727 5728 5730 5731 5734 5737 5740 5742 5743 5744 5745 5748 5750 5752 5754 5757 5759 5759 5760 5761 5763 5766 5770 5771 5770 5771 5775 5779 5781 5783 5786 5791 5795 5798 5801 5803 5803 5804 5807 5812 5816 5818 5822 5825 5827 5831 5833 5834 5837 5841 5845 5848 5851 5853 5854 5855 5856 5856 5859 5860 5860 5861 5866 5869 5870 5872 5873 5875 5876 5877 5877 5878 5878 5879 5881 5882 5882 5882
5703 5704 5704 5706 5709 5710 5710 5713 5716 5717 5719 5721 5723 5726 5729 5731 5734 5736 5738 5739 5741 5743 5746 5748 5750 5751 5753 5753 5753 5756 5758 5761 5765 5766 5766 5769 5773 5776 5778 5780 5781 5785 5791 5796 5800 5801 5801 5801 5804 5806 5808 5810 5813 5816 5821 5826 5830 5831 5833 5837 5841 5844 5847 5849 5851 5851 5851 5852 5854 5856 5857 5859 5863 5865 5866 5868 5870 5872 5873 5874 5874 5875 5876 5877 5878 5879 5879 5880
5695 5696 5696 5697 5700 5702 5703 5706 5709 5710 5712 5715 5718 5721 5723 5726 5729 5730 5732 5734 5737 5739 5742 5744 5745 5746 5747 5748 5748 5750 5752 5756 5759 5762 5764 5767 5770 5772 5775 5777 5779 5781 5787 5793 5796 5798 5799 5799 5800 5802 5805 5808 5812 5817 5823 5827 5829 5830 5832 5834 5837 5840 5843 5845 5846 5846 5847 5850 5851 5852 5855 5857 5859 5861 5863 5865 5867 5869 5870 5871 5871 5872 5873 5874 5875 5876 5876 5876
5687 5689 5689 5689 5691 5694 5695 5698 5701 5703 5705 5708 5711 5714 5717 5720 5723 5724 5726 5728 5731 5734 5737 5738 5739 5740 5742 5743 5743 5744 5747 5751 5756 5759 5762 5764 5766 5769 5772 5775 5778 5780 5784 5787 5790 5793 5794 5795 5797 5800 5804 5808 5813 5818 5822 5824 5826 5828 5830 5832 5834 5837 5839 5840 5840 5842 5845 5847 5847 5850 5853 5854 5856 5859 5860 5861 5864 5865 5867 5868 5868 5869 5870 5870 5871 5872 5872 5873
5679 5681 5682 5681 5682 5686 5688 5690 5694 5696 5698 5701 5704 5707 5710 5713 5716 5718 5720 5723 5727 5730 5732 5733 5733 5734 5736 5737 5738 5741 5744 5748 5752 5754 5758 5762 5763 5765 5769 5773 5775 5777 5779 5780 5783 5787 5789 5791 5795 5798 5801 5806 5811 5815 5818 5821 5822 5825 5827 5828 5831 5833 5834 5835 5837 5840 5842 5843 5844 5848 5850 5851 5853 5856 5857 5858 5860 5862 5864 5865 5865 5866 5866 5866 5867 5868 5869 5869
5670 5672 5674 5674 5675 5677 5679 5682 5686 5689 5692 5694 5697 5700 5703 5707 5710 5712 5713 5717 5722 5724 5725 5726 5727 5728 5730 5730 5733 5737 5740 5744 5747 5748 5753 5761 5763 5762 5765 5769 5771 5773 5775 5776 5779 5782 5785 5787 5791 5795 5798 5802 5806 5810 5815 5817 5819 5821 5823 5825 5828 5829 5831 5833 5835 5838 5840 5840 5842 5845 5846 5847 5850 5853 5854 5856 5857 5859 5861 5861 5861 5862 5862 5863 5864 5864 5865 5866
5662 5663 5665 5667 5668 5669 5671 5674 5678 5682 5685 5687 5690 5693 5697 5701 5703 5705 5708 5712 5715 5717 5718 5721 5723 5724 5725 5727 5730 5734 5738 5741 5745 5748 5752 5758 5761 5762 5763 5765 5768 5770 5772 5774 5776 5779 5781 5783 5787 5791 5793 5796 5801 5806 5810 5812 5815 5817 5819 5821 5824 5825 5827 5830 5833 5835 5836 5837 5840 5841 5842 5844 5847 5849 5851 5852 5853 5855 5856 5856 5857 5858 5858 5859 5860 5861 5861 5862
5652 5654 5656 5659 5661 5662 5664 5666 5670 5674 5678 5680 5683 5687 5691 5695 5696 5699 5703 5706 5708 5710 5712 5716 5718 5719 5721 5724 5727 5731 5735 5739 5744 5747 5750 5754 5757 5759 5761 5763 5766 5768 5769 5771 5773 5775 5778 5781 5784 5787 5788 5790 5795 5801 5806 5809 5812 5812 5814 5816 5819 5821 5823 5826 5829 5831 5832 5834 5836 5837 5838 5841 5845 5846 5847 5848 5849 5851 5852 5853 5854 5854 5855 5855 5856 5857 5858 5859
5643 5645 5648 5650 5653 5654 5657 5659 5662 5665 5670 5673 5677 5681 5685 5688 5690 5693 5697 5699 5702 5706 5709 5710 5713 5715 5717 5720 5723 5726 5731 5737 5742 5745 5747 5749 5753 5756 5758 5761 5763 5765 5767 5769 5770 5772 5775 5777 5780 5782 5784 5786 5791 5797 5802 5806 5806 5805 5808 5812 5814 5816 5819 5822 5825 5826 5828 5830 5831 5832 5835 5840 5843 5843 5843 5845 5846 5847 5849 5849 5850 5851 5851 5852 5853 5854 5855 5855